User: anonymous   Login
Location: Albany
(35.0000°S, 118.0000°E)
Time: 04:56:23
(UTC-05:00)
Language:

Cosmos 1933 - Orbit

View from above orbital plane
View from above orbital plane
View from above satellite
View from above satellite

Ground track
Ground track

The orbit data is extracted from the following two-line orbital elements,

1 18958U 88020A   16341.95691497 +.00000387 +00000-0 +26562-4 0  9997
2 18958 082.5297 289.3031 0010782 209.7556 150.3058 15.03103895541483
Epoch (UTC): 06 December 2016 22:57:57
Eccentricity: 0.0010782
inclination: 82.5297°
perigee height: 550 km
apogee height: 565 km
right ascension of ascending node: 289.3031°
argument of perigee: 209.7556°
revolutions per day: 15.03103895
mean anomaly at epoch: 150.3058°
orbit number at epoch: 54148

The dashed part of the orbit path shows where the satellite is in the earth's shadow,  

DLR